This is the latest recevied weather packets stored in our database for station/object YM2KV-13. If no packets are shown the sender has not sent any weather packets the latest 10 day(s).
| Time | Temp. | Humidity | Pressure | Rain* | Wind** | Luminosity | Snow |
|---|---|---|---|---|---|---|---|
| 1777606780 | 9.44° C | 90% | 1025.8 hPa | - | - | - | - |
| 1777606180 | 9.44° C | 92% | 1026.3 hPa | - | - | - | - |
| 1777605580 | 9.44° C | 90% | 1026.3 hPa | - | - | - | - |
| 1777604979 | 9.44° C | 90% | 1026.1 hPa | - | - | - | - |
| 1777604379 | 9.44° C | 91% | 1026.1 hPa | - | - | - | - |
| 1777603780 | 9.44° C | 91% | 1025.9 hPa | - | - | - | - |
| 1777603180 | 8.89° C | 90% | 1025.8 hPa | - | - | - | - |
| 1777602579 | 9.44° C | 90% | 1025.9 hPa | - | - | - | - |
| 1777601979 | 9.44° C | 90% | 1025.8 hPa | - | - | - | - |
| 1777601379 | 9.44° C | 89% | 1026 hPa | - | - | - | - |
| 1777600780 | 9.44° C | 87% | 1025.9 hPa | - | - | - | - |
| 1777586379 | 9.44° C | 82% | 1025.5 hPa | - | - | - | - |
| 1777584579 | 9.44° C | 82% | 1025.6 hPa | - | - | - | - |
| 1777583979 | 9.44° C | 82% | 1025.3 hPa | - | - | - | - |
| 1777583379 | 8.89° C | 82% | 1025.4 hPa | - | - | - | - |
| 1777582779 | 9.44° C | 80% | 1025.5 hPa | - | - | - | - |
| 1777580979 | 9.44° C | 79% | 1025.5 hPa | - | - | - | - |
| 1777580379 | 9.44° C | 80% | 1025.9 hPa | - | - | - | - |
| 1777579779 | 9.44° C | 80% | 1025.8 hPa | - | - | - | - |
| 1777579179 | 9.44° C | 82% | 1025.6 hPa | - | - | - | - |
| 1777578579 | 9.44° C | 80% | 1025.5 hPa | - | - | - | - |
| 1777577379 | 10.56° C | 77% | 1025.7 hPa | - | - | - | - |
| 1777576779 | 10.56° C | 75% | 1025.8 hPa | - | - | - | - |
| 1777576179 | 10.56° C | 76% | 1025.7 hPa | - | - | - | - |
| 1777573779 | 11.67° C | 75% | 1025.9 hPa | - | - | - | - |
* Rain since midnight (hover to see other rain measurements)
** Current wind speed in m/s (hover to see current wind gust speed)